{"data":{"norad_id":62640,"epoch":"2026-09-22T10:35:30.151680Z","epoch_age_seconds":149636,"freshness":"FRESH","line1":"1 62640U 25009AH  26265.44132120  .00005818  00000+0  20286-3 0  9994","line2":"2 62640  97.3538 345.6972 0002256  34.4402 325.6984 15.30015033 93799","mean_motion":15.30015033,"eccentricity":0.0002256,"inclination_deg":97.3538,"raan_deg":345.6972,"arg_perigee_deg":34.4402,"mean_anomaly_deg":325.6984,"bstar":0.00020286,"rev_number":9379,"period_min":94.116722315891,"perigee_km":474.22116234516,"apogee_km":477.31364401188,"semimajor_km":6853.9044031785,"source":"CELESTRAK","updated_at":"2026-09-23T09:00:21.536097Z"}}